Location: Unspecified
(0.0000°N, 0.0000°E)
Time: 08:36:37
(UTC+00:00)

ATLAS 5 CENTAUR DEB - Pass Details

Date: 22 February 2026
Orbit: 8295 x 34941 km, 19.8° (Epoch: 28 February)

Event Time Altitude Azimuth Distance (km) Brightness Sun altitude
Rises 15:00:46 0° 108° (ESE) 38,659 ? 47.2°
Reaches altitude 10° 17:45:55 10° 101° (ESE) 38,945 ? 6.8°
Maximum altitude 19:26:50 14° 94° (E) 33,845 ? -18.1°
Enters shadow 20:05:10 13° 90° (E) 30,978 ? -27.5°
Exits shadow 20:09:31 13° 90° (E) 30,624 ? -28.5°
Drops below altitude 10° 20:36:07 10° 87° (E) 28,369 ? -35.1°
Sets 21:23:20 0° 80° (E) 24,185 ? -46.5°
